Regional Weather Roundup
Issued by NWS

Home | Current Version | Previous Version | Graphics & Text | Print | Product List | Glossary On
Versions: 1 2 3 4 5 6 7 8 9 10 11 12 13 14 15 16 17 18 19 20 21 22 23 24 25 26 27 28 29 30 31 32 33 34 35 36 37 38 39 40 41 42 43 44 45 46 47 48 49 50
000
ASUS43 KMKX 030400
RWRWI

WISCONSIN REGIONAL WEATHER ROUNDUP
NATIONAL WEATHER SERVICE MILWAUKEE/SULLIVAN WI
1100 PM CDT TUE JUN 02 2015

NOTE: "FAIR" INDICATES FEW OR NO CLOUDS BELOW 12,000 FEET WITH NO
SIGNIFICANT WEATHER AND/OR OBSTRUCTIONS TO VISIBILITY.

WIZ001-002-006>008-014>016-023>028-030500-
NORTHWEST WISCONSIN

CITY           SKY/WX    TMP DP  RH WIND       PRES   REMARKS
SUPERIOR ARPT  MOCLDY    45  40  82 N3        29.94S
ASHLAND        CLOUDY    62  49  62 S6        29.94F
HAYWARD        CLOUDY    65  48  54 S8        29.96S
SIREN          FAIR      65  52  62 SE6       29.93S
CUMBERLAND     MOCLDY    61  50  67 SE8       29.96S
RICE LAKE      MOCLDY    64  51  60 SE8       29.98S
CHETEK         MOCLDY    64  51  64 SE8       29.97S
LADYSMITH      CLOUDY    63  49  61 SE5       30.01S
EAU CLAIRE     PTCLDY    64  49  57 S8        29.97F
MENOMONIE      MOCLDY    64  52  66 SE7       29.97S
NEW RICHMOND   PTCLDY    63  51  66 SE7       29.95R
OSCEOLA        CLEAR     66  53  61 SE9       29.96R
$$

WIZ003>005-009-010-017-018-030500-
NORTH CENTRAL WISCONSIN

CITY           SKY/WX    TMP DP  RH WIND       PRES   REMARKS
MANITOWISH WTR MOCLDY    53  44  71 S3        30.01S
ARBOR VITAE    PTCLDY    56  45  67 S3        30.02F
WOODRUFF       PTCLDY    56  45  67 S3        30.02F
RHINELANDER    CLEAR     57  42  57 S5        30.04S
EAGLE RIVER    PTCLDY    56  41  56 S5        30.03S
LAND O LAKES   PTCLDY    52  43  72 S3        30.03S
PHILLIPS       FAIR      61  43  51 S9        30.00F
TOMAHAWK       PTCLDY    51  45  79 CALM      30.04S
MEDFORD        PTCLDY    55  44  66 SE3       30.02F
MERRILL        NOT AVBL
$$

WIZ029-030-035-036-043>047-030500-
CENTRAL WISCONSIN

CITY           SKY/WX    TMP DP  RH WIND       PRES   REMARKS
WAUSAU         PTCLDY    58  42  55 SE9       30.02F
MOSINEE        PTCLDY    55  45  67 E7        30.05S
MARSHFIELD     CLEAR     57  44  62 SE5       30.02F
STEVENS POINT  PTCLDY    56  43  60 SE5       30.05S
WAUPACA        PTCLDY    58  45  63 SE3       30.06R
WAUTOMA        NOT AVBL
WISC RAPIDS    CLEAR     57  44  62 S5        30.04F
CAMP DOUGLAS   NOT AVBL
$$

WIZ011>013-019>022-031-037>040-048>050-030500-
NORTHEAST WISCONSIN

CITY           SKY/WX    TMP DP  RH WIND       PRES   REMARKS
ANTIGO         CLEAR     53  43  68 S9        30.06S
SHAWANO        CLEAR     58  37  45 S5        30.06S
OCONTO         CLEAR     54  37  53 S3        30.06S
STURGEON BAY   CLEAR     45  37  76 SE7       30.10F
GREEN BAY      CLEAR     53  40  61 S5        30.07S
MANITOWOC      NOT AVBL
APPLETON       PTCLDY    57  37  47 SE7       30.07S
CLINTONVILLE   PTCLDY    54  41  62 S3        30.06S
OSHKOSH        PTCLDY    51  41  68 S7        30.06S
$$

WIZ032>034-041-042-053>061-030500-
SOUTHWEST WISCONSIN

CITY           SKY/WX    TMP DP  RH WIND       PRES   REMARKS
LA CROSSE      PTCLDY    65  49  56 S7        29.98F
SPARTA         PTCLDY    54  48  80 SE5       30.02F
VIROQUA        PTCLDY    62  47  59 SE9       30.02F
BOSCOBEL       MOCLDY    55  51  86 CALM      30.02F
PRAIRIE DU CHI MOCLDY    61  49  65 E5        30.01S
PLATTEVILLE    PTCLDY    62  49  63 SE8       30.03S
$$

WIZ056-057-062-063-064-067-068-030500-
SOUTH CENTRAL WISCONSIN

CITY           SKY/WX    TMP DP  RH WIND       PRES   REMARKS
REEDSBURG      CLEAR     56  48  75 CALM      30.04R
BARABOO/DELLS  CLEAR     56  46  67 CALM      30.04S
LONE ROCK      NOT AVBL
MINERAL POINT  PTCLDY    63  45  51 CALM      30.04S
MADISON        PTCLDY    62  47  57 SE8       30.05S
MIDDLETON      PTCLDY    58  49  70 CALM      30.05S
WATERTOWN      CLEAR     56  40  54 SE3       30.06F
MONROE         PTCLDY    61  45  55 S7        30.05S
JANESVILLE     PTCLDY    59  45  58 SE8       30.06S
$$

WIZ051-052-058>065-066-070>072-030500-
SOUTHEAST WISCONSIN

CITY           SKY/WX    TMP DP  RH WIND       PRES   REMARKS
MILWAUKEE      MOCLDY    51  44  77 SE3       30.10S
WAUKESHA       CLEAR     52  41  66 CALM      30.10S
MILWAUKEE/TIMM CLEAR     54  41  62 CALM      30.10R
RACINE         PTCLDY    52  43  71 SE3       30.11S
BURLINGTON     CLEAR     52  43  70 CALM      30.09S
KENOSHA        CLEAR     51  44  77 SE3       30.09F
FOND DU LAC    CLEAR     55  39  54 CALM      30.07S
SHEBOYGAN      CLEAR     49  44  83 S5        30.09S
WEST BEND      CLEAR     48  41  76 CALM      30.08F
JUNEAU         PTCLDY    56  41  55 SE8       30.08S
$$

LSZ147-162-030500-
LAKE SUPERIOR

STATION/POSITION TIME  TEMP    WIND        PRES    WAVE
                       AIR SEA DIR/SP/G            HT/PER
                 (UTC) (F)     (DEG/KT/KT) (MB)    (FT/S)
W MID LAKE BUOY  0250   44 37  130/ 10/ 10   N/A     1
DEVILS ISLAND    0300   47      80/  5/  5   N/A
PORT WING        0300   45      CALM  /  3   N/A
SAXON HARBOR     0300   62      CALM  /  3   N/A
$$

LMZ867-665-643>646-030500-
LAKE MICHIGAN

STATION/POSITION TIME  TEMP    WIND        PRES    WAVE
                       AIR SEA DIR/SP/G            HT/PER
                 (UTC) (F)     (DEG/KT/KT) (MB)    (FT/S)
CHAMBERS ISLAND  0300   57     140/  5/  9   N/A
N MID LAKE BUOY  0250   40 37  160/  8/  8   N/A     0
NORTHPORT PIER   0300   49     160/  6/  8   N/A
SISTER BAY       0348   48     160/  9/ 11   N/A
ALGOMA LAKESHORE 0309          160/  6/  9   N/A
KEWAUNEE LAKESHO 0300   47     150/  6/  9   N/A
SHEBOYGAN LAKESH 0300   49     170/  4/  5   N/A
PORT WASHINGTON  0340   50      CALM  /  2   N/A
ATWATER BUOY     0300   48 49  130/  2/  2   N/A
MILWAUKEE LAKESH 0300   48      80/  1/  1   N/A
S MID LAKE BUOY  0250   42 38   80/  6/  8   N/A     0
KENOSHA   LAKESH 0300   52     160/  4/  5   N/A
$$

TC  - TEMPERATURE IN CELSIUS
VSB - VISIBILITY IN STATUTE MILES
WCI - WIND CHILL INDEX
HX  - HEAT INDEX



USA.gov is the U.S. government's official web portal to all federal, state and local government web resources and services.